This is the latest recevied weather packets stored in our database for station/object VK1KCM-5. If no packets are shown the sender has not sent any weather packets the latest 10 day(s).
| Time | Temp. | Humidity | Pressure | Rain* | Wind** | Luminosity | Snow |
|---|---|---|---|---|---|---|---|
| 1787714383 | 15.56° C | 76% | 1017.9 hPa | 0 mm | - | - | - |
| 1787714123 | 15.56° C | 76% | 1017.6 hPa | 0 mm | - | - | - |
| 1787713833 | 15.56° C | 77% | 1018 hPa | 0 mm | - | - | - |
| 1787713578 | 15.56° C | 77% | 1018 hPa | 0 mm | - | - | - |
| 1787713333 | 15.56° C | 76% | 1018 hPa | 0 mm | - | - | - |
| 1787713043 | 15.56° C | 76% | 1018.1 hPa | 0 mm | - | - | - |
| 1787712753 | 15.56° C | 74% | 1018.2 hPa | 0 mm | - | - | - |
| 1787712488 | 15.56° C | 74% | 1018.2 hPa | 0 mm | - | - | - |
| 1787712209 | 15.56° C | 70% | 1018.1 hPa | 0 mm | - | - | - |
| 1787711948 | 15.56° C | 73% | 1018.3 hPa | 0 mm | - | - | - |
| 1787711663 | 15° C | 72% | 1018.5 hPa | 0 mm | - | - | - |
| 1787711393 | 15.56° C | 70% | 1018.1 hPa | 0 mm | - | - | - |
| 1787711130 | 15.56° C | 72% | 1018.2 hPa | 0 mm | - | - | - |
| 1787710878 | 15.56° C | 72% | 1018.2 hPa | 0 mm | - | - | - |
| 1787710613 | 15° C | 72% | 1018.7 hPa | 0 mm | - | - | - |
| 1787710348 | 15° C | 73% | 1018.6 hPa | 0 mm | - | - | - |
| 1787710098 | 15° C | 73% | 1018.7 hPa | 0 mm | - | - | - |
| 1787709828 | 15° C | 71% | 1018.6 hPa | 0 mm | - | - | - |
| 1787709533 | 15° C | 72% | 1018.8 hPa | 0 mm | - | - | - |
| 1787709253 | 15° C | 72% | 1018.7 hPa | 0 mm | - | - | - |
| 1787708978 | 15° C | 72% | 1018.7 hPa | 0 mm | - | - | - |
| 1787708723 | 15° C | 72% | 1019.1 hPa | 0 mm | - | - | - |
| 1787708458 | 15° C | 72% | 1019.1 hPa | 0 mm | - | - | - |
| 1787708208 | 15° C | 72% | 1018.7 hPa | 0 mm | - | - | - |
| 1787707958 | 15° C | 71% | 1018.7 hPa | 0 mm | - | - | - |
* Rain latest hour (hover to see other rain measurements)
** Current wind speed in m/s (hover to see current wind gust speed)